TELSTAR 19V

Last updated on Tue Sep 16 2025 00:02:49 GMT+0000 (Coordinated Universal Time)

1 43562U 18059A 25258.42935525 -.00000296 00000+0 00000+0 0 9996 2 43562 0.0198 187.9784 0002449 328.0928 290.1298 1.00269880 26389
UTC large
Height (km)
Speed (km/s)
/
Latitude / Longitude
Inclination (degrees)
Orbital Period (minutes)
Azimuth
Elevation
Range (km)
Doppler Factor

Next 0 passes for location: London (51.5072 / 0.1276)

Sorry there are no passes over London.